Starlink 32401

operational
NORAD ID: 61865 Int'l Des: 2024-202 Owner: SPXS Country: US Constellation: starlink
LEOCIRCULAR

关于 Starlink 32401

正在加载描述...

实时位置

正在加载3D地球...

即将过境

高度历史

Altitude vs Time

uPlot chart will show altitude changes over time

两行轨道根数

1 61865U 24202W 25259.10843421 .00005708 00000-0 21667-3 0 9997
2 61865 42.9976 144.2762 0001083 280.7801 79.2929 15.27598501 48631
Epoch: Sep 16, 2025 • Age: 8 hours

当前状态

高度 482.5 km
速度 7.63 km/s
星下点 19.60°N, 10.44°E
发射日期 Nov 7, 2024
运行时间 0.8 years
类型 internet

技术详情

分类 Payload
质量 730.00 kg
干质量 700.00 kg
总质量 730.00 kg
长度 0.30 m
直径 4.10 m
跨度 29.00 m
形状 Box + pan
制造商 SPXS
平台类型 Starlink V2M
阶段状态 In Orbit
所有者/国家 SPXS/US

大型星座

Loading constellations...